sat.trackr.live / text

‹ back to catalog

STARLINK-1372

NORAD 45543 · 2020-025N

PAYLOAD ACTIVE UNKNOWN

§ Identity

Operator
Country
US
Launch date
2020-04-22
Launch site
AFETR
Launch vehicle
Mass (kg)
RCS (m²)

Purposes: comms

External: N2YO · Heavens-Above · Gunter

§ Orbital elements

Epoch: 2026-09-20T00:30:35.998272Z

Period
93.09 min
Inclination
53.1547°
Eccentricity
0.0003539
Mean motion
15.46838308 rev/d
Perigee alt
423.6 km
Apogee alt
428.4 km
Semi-major
6,804.1 km
B*
4.6189e-4
RAAN
266.9717°
Arg perigee
64.6729°
Mean anomaly
295.4645°
Rev number
35,418

§ Raw data

STARLINK-13721 45543U 20025N   26263.02124998  .00023205  00000+0  46189-3 0  99962 45543  53.1547 266.9717 0003539  64.6729 295.4645 15.46838308354182

JSON: /api/v1/satellites/45543 · /tle

For live sub-satellite position, see the globe view (requires WebGL).

§ Visibility from observer

Set your observer location to see the next 7 days of passes ≥ 10°. The values pass through the URL so the page stays shareable.

No JS? Fill the form by hand. The geolocation button needs JavaScript.